Weather in Lisye

Russia / Kurgan Oblast     55°07′56″N   66°46′44″E
temp.,
°C
wind,
m/s
gust,
m/s
humid.,
%
clouds,
%
prec.,
mm/h
press.,
hPa
HPBL,
m
21 january, thu
thu2123:00−16wsw6129398 0.4 1011405
02:00−17sw6129499 0.1 1012385
05:00−19sw61195100 0.1 1014280
08:00−22wsw599432 0.0 1014186
11:00−22wsw5109016 0.0 1015300
14:00−20wsw59902 0.0 1015409
17:00−20wsw499539 0.0 1014371
20:00−23wsw479891 0.0 1014125
22 january, fri
fri2223:00−24wsw469985 0.0 1015108
02:00−25wsw459996 0.0 101482
05:00−24w349993 0.1 101579
08:00−23wsw359897 0.1 1016116
11:00−21w359798 0.1 1017221
14:00−20w3596100 0.1 1017329
17:00−21nw239899 0.3 101971
20:00−24nnw369897 0.1 1022160
23 january, sat
sat2323:00−30n349693 0.1 102440
02:00−32nnw349816 0.0 102729
05:00−33nnw33988 0.0 103028
08:00−35nnw34970 0.0 103439
11:00−34nnw35950 0.0 1036148
14:00−32nw34930 0.0 1037216
17:00−36nw229615 0.0 103819
20:00−35w119590 0.0 104019
24 january, sun
sun2423:00−32sw229395 0.0 104053
02:00−30s3494100 0.0 1039155
05:00−29s3696100 0.0 1038205
08:00−27sse4698100 0.3 1038226
11:00−25sse4797100 0.5 1037243
14:00−23sse4796100 0.1 1036310
17:00−22sse5897100 0.2 1035380
20:00−20sse5897100 0.5 1033405
25 january, mon
mon2523:00−18sse5896100 0.9 1031350
02:00−18sse4896100 0.1 1029268
05:00−17se4696100 0.7 1027227
08:00−15ese2396100 0.8 1026102
11:00−15ne2396100 1.0 1027133
14:00−15ne239596 0.0 1029163
17:00−20ne239689 0.0 103120
20:00−22ene229786 0.0 103320